Location: Arrodets-la-Barthe
(43.0306°N, 0.2829°E)
Time: 19:28:42
(UTC+00:00)

CSL-04 Rocket - Pass Details

Date: 24 October 2021
Orbit: 805 x 860 km, 98.9° (Epoch: 02 December)

Event Time Altitude Azimuth Distance (km) Brightness Sun altitude
Exits shadow 18:56:02 44° 99° (E) 1,174 3.9 -21.5°
Maximum altitude 18:56:58 49° 69° (ENE) 1,107 3.9 -21.6°
Drops below altitude 10° 19:02:18 10° 357° (N) 2,507 6.2 -22.6°
Sets 19:04:45 0° 352° (N) 3,447 7.0 -23.1°
